Temp
-10 -10 -10 -10 -10 -10 -10 -10 -10 -10 -10 -10 -10 -10 -10 -11 -11 -10 -10 -11 -10 -10 -9 -10 -9 -9 -9 -9 -9 -9 -8 -9 -9 -9 -9 -9 -9 -9 -9 -9 -9 -9 -9 -9 -9 -8 -8
-10 -10 -10 -10 -10 -10 -10 -10 -10 -10 -11 -11 -10 -11 -11 -11 -11 -11 -11 -11 -11 -10 -10 -10 -10 -10 -9 -9 -9 -9 -9 -9 -9 -9 -9 -9 -9 -9 -9 -9 -9 -9 -9 -8 -8 -8 -8
-10 -10 -10 -10 -10 -10 -10 -10 -10 -11 -11 -11 -11 -11 -11 -11 -11 -11 -10 -11 -11 -10 -10 -10 -10 -10 -10 -10 -10 -9 -9 -9 -9 -9 -9 -9 -9 -9 -9 -9 -9 -9 -9 -9 -9 -9 -8
-10 -10 -10 -10 -10 -10 -10 -10 -11 -11 -11 -11 -11 -11 -11 -11 -12 -11 -11 -11 -11 -11 -10 -10 -10 -10 -10 -10 -10 -10 -10 -9 -9 -9 -9 -9 -9 -9 -9 -9 -9 -9 -9 -9 -8 -9 -8
-11 -10 -11 -11 -11 -11 -11 -11 -11 -11 -11 -11 -11 -11 -11 -12 -12 -11 -11 -11 -11 -11 -11 -10 -10 -10 -10 -10 -10 -10 -10 -10 -10 -9 -9 -9 -9 -9 -9 -9 -9 -9 -10 -9 -10 -8 -9
-11 -11 -11 -11 -11 -11 -11 -11 -11 -11 -11 -11 -12 -12 -12 -12 -12 -11 -12 -11 -11 -12 -11 -11 -10 -10 -10 -10 -10 -11 -10 -10 -10 -10 -10 -10 -10 -10 -9 -10 -10 -10 -10 -10 -10 -10 -9
-11 -11 -11 -11 -11 -11 -11 -11 -11 -11 -12 -11 -11 -12 -12 -12 -12 -12 -12 -11 -11 -11 -11 -11 -10 -10 -11 -10 -10 -11 -11 -10 -10 -10 -10 -10 -10 -10 -10 -10 -10 -10 -10 -10 -10 -10 -10
-11 -11 -11 -11 -11 -11 -11 -11 -11 -11 -12 -12 -12 -12 -12 -12 -12 -12 -12 -12 -11 -11 -10 -12 -12 -10 -10 -11 -11 -11 -11 -11 -11 -10 -10 -10 -10 -10 -10 -10 -10 -10 -10 -10 -10 -10 -9
-12 -12 -12 -12 -12 -12 -12 -12 -11 -12 -12 -12 -12 -12 -12 -12 -12 -12 -12 -12 -12 -11 -11 -10 -11 -11 -10 -11 -11 -11 -11 -11 -11 -11 -11 -11 -11 -11 -10 -10 -11 -10 -10 -10 -10 -10 -10
-12 -12 -12 -12 -12 -12 -12 -12 -12 -12 -12 -12 -12 -12 -12 -12 -12 -12 -12 -12 -11 -12 -11 -10 -11 -10 -11 -10 -11 -11 -11 -12 -12 -12 -12 -12 -11 -11 -11 -11 -11 -11 -10 -11 -10 -10 -10
-13 -13 -13 -13 -13 -13 -12 -12 -12 -12 -12 -12 -12 -12 -12 -12 -12 -12 -12 -12 -12 -12 -11 -11 -11 -11 -11 -11 -11 -11 -11 -12 -12 -12 -12 -12 -11 -11 -11 -11 -11 -11 -11 -10 -10 -10 -10
-13 -13 -13 -13 -13 -13 -13 -13 -12 -13 -13 -13 -13 -12 -12 -12 -12 -12 -12 -12 -11 -11 -11 -12 -11 -11 -11 -12 -12 -12 -12 -12 -12 -12 -12 -12 -11 -11 -11 -11 -11 -11 -11 -10 -10 -10 -10
-12 -12 -12 -13 -13 -13 -13 -13 -13 -13 -13 -13 -13 -12 -12 -12 -12 -12 -12 -12 -12 -10 -11 -11 -12 -12 -11 -12 -12 -12 -12 -12 -12 -12 -12 -12 -11 -11 -11 -12 -11 -11 -11 -11 -10 -11 -11
-12 -12 -12 -12 -12 -13 -13 -13 -13 -13 -13 -13 -13 -12 -12 -12 -12 -12 -12 -12 -11 -10 -10 -11 -12 -12 -12 -12 -12 -12 -12 -12 -12 -12 -12 -12 -12 -12 -11 -12 -11 -12 -11 -12 -11 -12 -11
-13 -12 -12 -13 -13 -13 -13 -13 -13 -13 -13 -13 -13 -12 -11 -12 -13 -12 -12 -12 -10 -10 -10 -11 -11 -12 -13 -12 -12 -13 -12 -12 -13 -13 -13 -12 -12 -12 -12 -12 -12 -12 -12 -12 -12 -12 -11
-12 -12 -12 -12 -12 -13 -13 -13 -13 -13 -13 -13 -13 -13 -12 -12 -12 -12 -12 -10 -10 -11 -11 -11 -11 -11 -12 -12 -12 -13 -13 -12 -12 -12 -13 -13 -12 -13 -13 -11 -12 -12 -13 -13 -13 -13 -13
-13 -12 -13 -12 -12 -12 -13 -13 -13 -13 -13 -13 -13 -13 -12 -12 -13 -13 -11 -11 -11 -12 -12 -11 -11 -11 -11 -13 -13 -13 -12 -12 -12 -12 -12 -13 -13 -12 -13 -13 -12 -13 -12 -13 -13 -13 -14
-13 -13 -13 -13 -13 -12 -13 -13 -13 -13 -14 -14 -13 -13 -12 -13 -13 -12 -10 -11 -11 -12 -12 -12 -11 -11 -12 -13 -13 -13 -12 -13 -13 -13 -13 -13 -13 -12 -13 -13 -13 -13 -14 -14 -14 -14 -14
-13 -13 -14 -13 -13 -13 -12 -13 -13 -13 -13 -14 -13 -13 -13 -13 -13 -12 -12 -11 -11 -12 -12 -12 -12 -12 -13 -13 -13 -13 -13 -13 -13 -13 -13 -13 -13 -13 -13 -13 -13 -13 -13 -14 -14 -15 -12
-15 -14 -14 -14 -14 -13 -13 -13 -13 -13 -13 -14 -13 -13 -13 -13 -12 -12 -12 -12 -12 -12 -12 -12 -12 -12 -13 -13 -13 -13 -13 -13 -14 -14 -14 -14 -14 -14 -13 -15 -14 -14 -14 -14 -15 -14 -14
-15 -14 -14 -14 -14 -13 -13 -13 -13 -14 -14 -14 -13 -13 -13 -13 -12 -12 -13 -13 -12 -12 -13 -13 -13 -12 -13 -13 -13 -13 -13 -14 -14 -14 -14 -14 -14 -14 -14 -15 -15 -15 -14 -15 -15 -15 -15
-15 -15 -14 -14 -14 -14 -13 -14 -14 -14 -14 -14 -14 -13 -13 -13 -12 -13 -13 -12 -12 -13 -13 -13 -12 -13 -14 -13 -13 -14 -14 -14 -14 -14 -14 -14 -14 -15 -14 -15 -15 -14 -14 -14 -14 -15 -16
-16 -16 -15 -15 -14 -14 -14 -14 -14 -14 -14 -14 -14 -14 -14 -13 -13 -14 -12 -12 -12 -14 -13 -14 -13 -14 -13 -14 -14 -15 -15 -15 -15 -15 -15 -15 -15 -15 -14 -15 -15 -14 -14 -15 -15 -15 -17
-15 -15 -16 -15 -15 -14 -15 -14 -14 -14 -14 -14 -14 -14 -14 -14 -14 -12 -13 -13 -13 -13 -14 -14 -14 -14 -14 -14 -15 -15 -15 -15 -15 -15 -15 -15 -16 -16 -15 -16 -15 -15 -15 -15 -15 -16 -18
-16 -16 -16 -16 -16 -15 -15 -16 -15 -15 -14 -14 -14 -14 -14 -14 -14 -14 -13 -13 -15 -14 -14 -14 -14 -14 -14 -15 -15 -15 -16 -16 -16 -16 -16 -16 -16 -17 -17 -17 -16 -16 -16 -16 -16 -17 -19
-16 -16 -16 -16 -16 -16 -16 -16 -16 -16 -15 -15 -15 -15 -15 -15 -14 -15 -15 -14 -15 -15 -14 -14 -14 -15 -15 -15 -16 -16 -16 -16 -16 -16 -16 -16 -16 -17 -17 -17 -16 -17 -16 -17 -19 -18 -20
-21 -19 -18 -16 -16 -16 -16 -16 -16 -16 -16 -16 -16 -16 -16 -15 -15 -15 -15 -15 -15 -15 -15 -15 -15 -15 -16 -16 -16 -16 -16 -16 -16 -16 -16 -17 -17 -17 -17 -17 -17 -18 -18 -18 -20 -21 -20
-25 -24 -22 -20 -18 -17 -17 -17 -16 -17 -17 -16 -16 -16 -17 -16 -16 -16 -16 -15 -15 -16 -16 -16 -16 -16 -16 -16 -17 -17 -17 -17 -17 -17 -17 -17 -17 -17 -18 -19 -18 -19 -20 -21 -21 -21 -21
-25 -25 -25 -24 -22 -20 -19 -17 -17 -17 -17 -17 -17 -17 -17 -17 -17 -16 -16 -16 -16 -16 -16 -16 -16 -16 -17 -17 -17 -17 -17 -17 -17 -17 -17 -17 -17 -18 -18 -19 -21 -22 -22 -21 -21 -21 -21
Height
5820 5823 5827 5829 5832 5833 5835 5837 5838 5839 5839 5839 5839 5840 5839 5838 5836 5835 5834 5832 5831 5828 5824 5823 5822 5821 5821 5823 5823 5824 5824 5825 5826 5826 5826 5826 5826 5825 5825 5826 5827 5826 5825 5824 5823 5823 5824
5812 5815 5819 5822 5825 5827 5828 5830 5831 5833 5834 5834 5834 5834 5834 5833 5832 5831 5829 5827 5826 5825 5822 5820 5819 5817 5816 5818 5818 5819 5820 5821 5822 5822 5823 5823 5823 5822 5821 5821 5822 5821 5822 5821 5820 5818 5819
5804 5807 5810 5813 5817 5820 5821 5823 5824 5826 5827 5828 5828 5828 5828 5827 5826 5825 5824 5822 5822 5820 5819 5816 5814 5813 5812 5812 5813 5814 5816 5817 5818 5818 5819 5819 5818 5818 5817 5816 5817 5817 5818 5817 5815 5815 5813
5794 5797 5802 5805 5808 5812 5814 5816 5817 5819 5820 5821 5821 5821 5821 5820 5820 5819 5819 5817 5816 5815 5814 5812 5810 5809 5808 5807 5808 5809 5810 5811 5812 5813 5814 5814 5814 5813 5812 5812 5812 5813 5814 5813 5809 5810 5808
5785 5788 5792 5796 5799 5802 5806 5807 5809 5811 5813 5814 5814 5815 5814 5814 5814 5814 5813 5812 5811 5810 5809 5806 5806 5805 5804 5803 5803 5804 5805 5807 5807 5808 5809 5809 5809 5808 5808 5808 5808 5808 5809 5809 5807 5803 5804
5772 5778 5782 5787 5789 5794 5796 5799 5801 5802 5804 5806 5807 5807 5807 5806 5807 5807 5806 5805 5804 5804 5804 5801 5799 5802 5800 5800 5800 5799 5801 5802 5802 5802 5804 5804 5804 5803 5803 5804 5805 5804 5804 5804 5804 5799 5799
5760 5765 5771 5776 5780 5783 5786 5789 5791 5794 5795 5797 5799 5799 5800 5799 5800 5799 5800 5799 5798 5798 5800 5795 5794 5796 5794 5795 5796 5796 5795 5796 5796 5797 5798 5798 5799 5798 5798 5798 5799 5799 5799 5798 5797 5796 5793
5748 5754 5759 5764 5769 5772 5776 5779 5782 5784 5786 5788 5790 5791 5791 5792 5792 5792 5792 5791 5790 5789 5794 5791 5787 5789 5791 5791 5792 5792 5791 5792 5792 5792 5793 5794 5795 5794 5793 5794 5794 5793 5793 5792 5791 5789 5788
5735 5741 5746 5752 5757 5761 5765 5769 5772 5775 5777 5779 5781 5782 5783 5784 5785 5786 5784 5785 5783 5782 5784 5786 5783 5783 5786 5787 5787 5787 5787 5787 5788 5788 5788 5788 5790 5788 5788 5788 5787 5787 5785 5785 5782 5781 5780
5719 5727 5734 5739 5745 5749 5753 5758 5762 5764 5767 5769 5771 5772 5774 5775 5778 5780 5777 5777 5777 5776 5773 5780 5778 5779 5779 5780 5781 5781 5781 5784 5783 5783 5782 5783 5784 5784 5784 5783 5783 5783 5779 5780 5777 5775 5772
5703 5712 5719 5725 5731 5737 5741 5746 5750 5753 5756 5758 5761 5763 5764 5765 5770 5770 5772 5771 5772 5771 5763 5774 5773 5773 5774 5776 5776 5775 5776 5776 5777 5778 5779 5779 5779 5779 5779 5777 5775 5776 5774 5772 5770 5767 5763
5687 5695 5703 5710 5716 5723 5728 5733 5738 5741 5744 5747 5750 5752 5754 5757 5759 5761 5763 5764 5765 5764 5752 5764 5768 5770 5770 5769 5770 5771 5772 5772 5772 5772 5772 5771 5770 5771 5770 5770 5768 5767 5764 5763 5761 5758 5755
5671 5679 5687 5694 5701 5709 5715 5720 5726 5729 5732 5736 5738 5740 5743 5746 5751 5750 5754 5756 5756 5750 5751 5755 5760 5763 5763 5763 5763 5764 5764 5766 5767 5764 5765 5764 5763 5761 5765 5762 5761 5758 5758 5753 5752 5749 5746
5656 5664 5672 5679 5686 5694 5700 5707 5713 5717 5721 5724 5727 5729 5733 5734 5739 5741 5743 5747 5742 5740 5746 5746 5750 5753 5754 5756 5757 5756 5755 5756 5756 5756 5754 5754 5755 5752 5751 5755 5753 5750 5745 5745 5739 5740 5739
5639 5648 5657 5664 5671 5679 5686 5693 5700 5704 5710 5713 5715 5715 5718 5724 5729 5731 5731 5732 5732 5733 5735 5741 5740 5740 5744 5746 5749 5745 5747 5748 5748 5748 5748 5745 5746 5740 5743 5740 5741 5742 5736 5734 5731 5729 5725
5619 5629 5639 5647 5656 5664 5672 5678 5687 5693 5698 5702 5702 5704 5705 5713 5714 5717 5715 5718 5719 5725 5725 5726 5729 5731 5734 5738 5737 5739 5737 5736 5738 5741 5738 5737 5733 5734 5733 5725 5732 5727 5727 5722 5715 5712 5709
5600 5609 5619 5629 5638 5648 5657 5664 5672 5679 5684 5688 5688 5689 5695 5700 5700 5697 5701 5708 5712 5714 5716 5716 5716 5718 5721 5727 5729 5728 5726 5728 5727 5723 5725 5724 5722 5726 5720 5721 5717 5715 5709 5707 5705 5702 5699
5580 5591 5601 5611 5621 5630 5640 5649 5656 5663 5669 5670 5671 5672 5681 5685 5684 5684 5690 5700 5702 5703 5704 5705 5706 5708 5709 5712 5713 5714 5717 5715 5714 5712 5709 5708 5705 5708 5706 5705 5703 5703 5702 5697 5690 5692 5684
5559 5569 5580 5593 5604 5613 5621 5631 5638 5645 5651 5654 5652 5656 5663 5666 5667 5673 5679 5683 5688 5690 5691 5696 5698 5698 5700 5699 5699 5702 5703 5705 5701 5699 5697 5695 5692 5690 5690 5690 5690 5688 5686 5684 5679 5675 5672
5534 5546 5559 5572 5585 5595 5603 5612 5620 5627 5632 5637 5636 5637 5641 5645 5655 5660 5666 5670 5673 5678 5681 5683 5685 5686 5687 5688 5689 5689 5688 5689 5689 5686 5684 5680 5680 5679 5679 5676 5673 5672 5670 5668 5662 5654 5657
5510 5523 5538 5551 5562 5575 5584 5592 5601 5608 5613 5614 5616 5617 5625 5632 5640 5646 5650 5659 5661 5664 5666 5670 5671 5676 5677 5675 5675 5675 5675 5674 5674 5672 5670 5667 5667 5665 5668 5663 5658 5655 5654 5652 5647 5643 5633
5486 5499 5512 5525 5535 5550 5559 5567 5578 5585 5590 5589 5595 5603 5610 5618 5624 5629 5634 5643 5645 5649 5653 5658 5662 5663 5663 5662 5664 5660 5658 5658 5658 5658 5655 5654 5652 5648 5653 5647 5643 5639 5637 5633 5631 5625 5617
5460 5474 5488 5500 5513 5525 5535 5545 5553 5560 5562 5573 5581 5587 5591 5599 5605 5609 5620 5629 5634 5637 5641 5644 5650 5649 5648 5652 5644 5645 5641 5642 5642 5643 5642 5639 5638 5632 5634 5629 5624 5619 5624 5615 5612 5609 5601
5432 5446 5461 5474 5487 5500 5511 5521 5531 5537 5541 5557 5565 5573 5570 5575 5584 5599 5608 5614 5619 5622 5626 5629 5633 5633 5634 5634 5630 5627 5626 5624 5626 5628 5628 5625 5622 5617 5617 5612 5606 5609 5605 5601 5597 5595 5589
5402 5418 5432 5448 5461 5474 5487 5499 5508 5515 5522 5530 5544 5549 5553 5557 5568 5577 5588 5597 5603 5606 5606 5610 5616 5618 5620 5619 5613 5610 5609 5609 5613 5613 5612 5611 5606 5601 5598 5594 5596 5590 5588 5584 5581 5584 5578
5370 5385 5403 5420 5436 5449 5461 5473 5485 5494 5501 5507 5521 5532 5536 5539 5545 5564 5567 5576 5583 5588 5591 5595 5600 5598 5603 5601 5597 5592 5591 5594 5593 5598 5599 5596 5592 5588 5584 5580 5577 5571 5574 5569 5567 5568 5564
5342 5358 5374 5390 5407 5423 5436 5448 5462 5472 5478 5484 5504 5515 5518 5520 5530 5541 5549 5558 5566 5572 5577 5580 5583 5582 5587 5584 5581 5580 5580 5583 5578 5582 5585 5582 5575 5574 5568 5561 5563 5561 5552 5561 5556 5555 5552
5331 5341 5351 5364 5379 5394 5409 5423 5438 5449 5456 5461 5488 5490 5500 5506 5515 5523 5530 5542 5552 5557 5562 5566 5567 5567 5570 5569 5568 5567 5566 5566 5563 5564 5566 5566 5561 5557 5555 5549 5546 5548 5544 5544 5541 5540 5537
5320 5328 5335 5344 5356 5369 5383 5397 5411 5422 5434 5442 5458 5471 5479 5485 5493 5506 5515 5525 5534 5540 5544 5547 5549 5552 5554 5553 5553 5550 5552 5552 5551 5545 5544 5547 5548 5542 5541 5541 5534 5535 5532 5530 5528 5526 5522
Wind_Speed
44 40 38 38 38 35 34 33 31 30 26 29 28 33 37 38 42 34 31 28 21 19 17 16 19 20 19 18 19 19 18 16 14 14 14 14 16 16 16 14 15 15 17 18 18 17 14
47 43 44 39 39 38 36 36 32 30 29 31 31 35 40 45 41 32 31 29 25 22 18 17 18 21 21 19 20 20 20 20 17 16 17 18 18 21 20 21 18 20 17 17 19 19 18
51 50 47 43 39 40 39 37 34 36 38 38 37 38 41 45 40 37 31 31 28 22 22 19 19 18 22 21 19 21 21 21 19 18 17 19 19 21 22 24 22 22 20 21 22 22 25
51 49 49 48 49 49 43 40 39 40 40 41 40 41 39 39 35 36 32 31 28 25 23 21 21 22 20 22 19 19 20 21 20 19 19 20 21 21 22 21 21 20 19 19 25 22 27
53 50 46 44 42 46 48 47 44 44 44 43 43 43 42 41 37 37 33 33 30 27 24 22 20 21 19 21 21 19 19 19 20 21 21 20 21 21 20 19 19 20 17 18 22 28 27
62 57 54 49 48 49 48 51 51 50 47 45 45 44 45 41 38 39 37 33 31 29 24 27 22 19 20 20 20 21 21 22 23 23 20 20 19 19 16 16 17 17 20 19 19 30 28
63 63 62 59 56 55 53 53 52 53 49 48 46 45 45 42 39 40 39 35 32 32 21 28 26 17 20 18 20 21 22 23 23 22 20 18 19 17 16 17 19 20 23 23 25 27 32
62 63 60 61 61 56 53 53 51 51 49 50 46 47 47 43 39 40 40 38 33 32 21 24 27 23 16 17 19 18 20 20 20 20 19 17 18 18 18 19 21 22 25 25 28 31 33
67 63 60 60 59 57 57 55 56 54 53 53 50 50 49 44 41 39 39 38 33 32 28 21 23 26 20 16 18 20 20 21 19 18 18 17 19 20 19 20 22 22 26 25 30 32 34
72 74 72 70 70 64 60 58 60 58 57 54 54 51 49 46 43 37 37 39 35 34 35 22 25 23 20 20 22 23 21 20 22 24 22 19 21 21 21 24 26 27 34 32 35 37 40
74 72 72 71 70 67 63 63 60 57 56 55 54 51 49 45 40 42 36 39 36 36 43 23 18 18 15 17 22 22 22 23 25 24 23 25 26 27 28 29 33 34 37 40 41 42 44
84 78 78 77 73 72 66 61 59 56 55 53 52 53 51 48 43 43 37 38 36 39 46 30 22 24 24 19 21 24 27 28 29 29 30 32 32 30 30 31 35 37 41 43 44 48 51
77 74 82 80 77 73 68 64 62 58 56 56 55 57 57 52 48 46 42 41 41 44 43 38 32 26 25 27 28 29 32 35 37 39 34 33 35 36 31 36 38 42 40 44 48 46 50
71 71 70 67 69 73 68 67 66 63 57 53 55 57 57 56 49 46 43 42 47 45 43 42 40 35 34 34 32 37 38 37 37 39 39 39 38 40 40 35 37 40 47 43 49 49 50
79 82 75 71 67 67 67 68 64 63 63 56 55 57 58 53 50 43 43 46 49 46 46 42 44 43 40 38 35 38 37 40 39 39 40 43 44 48 44 47 45 43 48 48 51 51 54
79 80 80 73 67 64 65 68 67 62 63 66 57 55 56 48 55 47 49 48 50 45 47 48 46 48 47 40 41 38 40 46 43 41 47 47 50 46 47 56 50 52 49 51 56 57 57
79 83 77 71 76 73 67 69 71 65 60 63 58 61 61 58 53 52 52 49 48 50 51 53 51 48 47 48 43 45 49 48 49 51 49 49 54 52 55 52 53 54 58 57 55 58 58
90 93 79 78 81 78 76 73 76 66 65 67 70 68 64 62 66 62 60 55 56 53 51 52 53 48 47 47 51 53 45 45 46 49 51 52 55 54 55 51 51 50 45 49 52 52 56
99 95 85 82 80 82 85 73 73 73 69 63 69 67 69 69 70 69 65 61 54 53 50 53 53 51 48 52 54 48 43 40 41 46 48 49 53 52 54 53 50 49 51 54 58 58 62
105 103 92 86 88 86 81 82 77 75 71 66 69 72 68 76 73 72 68 66 63 60 54 54 52 53 56 50 48 50 53 50 48 49 53 49 49 49 50 46 50 54 59 62 62 65 63
104 103 103 103 96 93 93 86 87 80 79 78 75 78 78 77 75 74 64 61 61 60 58 57 61 58 53 58 57 57 54 54 53 52 50 51 53 57 56 57 60 61 61 59 64 65 66
100 99 98 104 101 105 98 88 89 87 85 88 80 81 81 79 76 73 72 70 66 65 58 57 57 56 56 61 56 55 59 59 54 54 57 59 54 55 54 57 61 64 66 65 64 62 60
103 103 101 102 103 103 100 97 94 98 97 88 84 87 84 83 81 78 73 70 66 67 67 64 64 62 63 60 53 49 53 53 54 56 57 56 55 61 59 60 63 66 61 62 61 57 57
107 109 106 102 103 103 99 96 96 95 99 93 88 89 88 86 86 80 77 70 71 69 68 69 68 63 59 54 59 65 60 61 61 58 58 56 60 62 63 63 66 64 61 61 58 54 56
114 113 107 105 103 104 100 95 92 96 97 95 88 89 91 90 85 80 80 77 68 69 71 69 65 72 65 67 60 63 59 59 57 58 58 58 60 62 62 62 62 65 60 58 58 54 55
113 118 114 108 107 107 102 98 95 96 98 93 90 90 87 84 86 78 79 77 72 68 76 76 66 73 68 61 62 62 63 65 63 60 57 56 57 60 62 64 63 60 59 58 56 55 51
86 97 102 107 111 110 108 103 101 99 97 96 92 89 85 88 80 76 76 75 70 68 67 68 70 71 67 66 67 65 63 61 62 59 56 57 59 61 61 61 62 57 61 57 53 52 53
52 61 76 89 100 104 106 107 108 104 101 101 91 95 86 91 85 82 74 72 70 68 70 69 69 71 69 69 64 64 63 64 65 65 63 59 61 61 57 56 59 55 56 55 52 50 48
44 45 49 57 71 87 97 101 103 106 105 102 99 96 91 88 87 83 81 75 69 69 70 72 73 70 66 64 65 66 64 66 65 61 61 62 57 56 58 53 54 50 52 51 49 51 53
Wind_Direction
246 251 257 262 261 263 268 270 271 275 280 287 288 296 301 306 312 310 314 321 313 312 316 310 283 288 280 272 261 257 258 261 260 268 273 280 282 282 285 282 279 275 281 287 284 284 286
248 246 254 258 262 266 267 268 268 275 282 287 288 294 299 300 304 304 309 317 312 310 308 301 288 281 276 274 262 255 254 256 258 264 273 280 285 281 275 278 271 270 269 273 274 273 270
246 250 252 250 257 265 266 262 265 276 283 285 289 293 298 299 298 298 302 309 314 305 304 301 295 287 265 275 266 260 257 256 254 257 265 276 282 283 279 273 271 271 273 269 261 269 270
248 251 250 250 255 260 265 259 266 277 282 285 285 290 297 297 295 293 294 303 309 306 302 299 298 283 267 269 267 258 257 256 258 259 265 270 276 277 280 274 272 273 270 270 273 274 276
244 244 245 248 252 255 256 261 268 273 276 282 284 285 292 289 290 288 292 300 300 303 297 298 297 288 269 260 261 259 255 255 257 262 264 264 270 271 270 272 279 270 270 272 277 271 274
243 241 243 247 256 252 254 263 268 269 276 277 280 282 290 287 288 283 289 294 295 295 293 293 296 283 266 262 258 255 255 257 259 260 261 260 260 263 266 269 265 264 282 275 270 277 275
244 241 243 249 255 251 257 262 265 268 272 273 274 277 289 288 290 280 286 294 292 289 284 291 293 283 267 262 256 255 256 257 257 256 254 247 250 254 257 263 264 266 271 275 276 276 281
239 241 244 251 253 249 258 263 263 266 270 270 271 276 284 286 286 282 287 291 289 285 275 277 286 288 269 265 249 259 253 253 251 251 249 244 244 252 259 266 272 276 280 282 286 287 290
239 243 244 247 250 252 259 261 263 264 268 267 270 274 278 282 282 285 289 289 284 286 284 269 277 282 281 261 249 247 256 254 248 244 245 254 264 265 267 268 269 277 281 283 284 286 289
240 243 247 249 251 251 257 259 262 263 265 266 269 272 275 277 278 284 284 285 287 290 285 276 288 284 270 262 250 247 250 249 247 258 274 272 271 276 282 290 295 298 292 298 296 297 296
237 241 244 246 248 251 256 258 257 259 261 264 267 269 270 273 280 280 282 278 282 288 285 279 282 287 278 259 254 250 239 234 250 264 274 279 278 280 284 289 294 297 295 296 295 293 294
239 240 244 248 249 251 254 251 255 257 259 259 263 267 266 272 275 275 272 274 278 278 278 274 267 274 273 269 264 256 249 248 259 267 274 278 281 282 284 288 289 290 294 294 295 294 292
244 246 245 247 249 251 250 251 253 255 259 260 261 265 266 268 274 271 269 268 272 267 272 272 264 266 266 265 263 260 258 259 269 274 273 275 281 277 280 291 293 293 293 294 296 297 298
239 242 245 247 248 250 249 250 251 252 255 260 264 268 267 267 267 266 261 264 264 267 269 273 267 266 263 265 260 261 266 271 271 270 277 279 280 283 287 289 293 295 296 298 291 293 292
240 243 244 243 244 244 247 247 251 251 253 262 264 268 266 262 270 261 258 260 263 266 266 269 273 263 261 265 268 267 267 269 271 279 277 277 281 284 287 289 289 291 289 286 287 287 286
238 241 239 242 237 240 241 245 249 253 254 253 261 265 251 260 263 251 252 248 260 264 266 263 267 267 268 263 269 266 274 271 268 273 274 275 276 278 283 288 286 282 286 290 291 289 290
240 237 239 239 240 239 240 245 247 250 249 252 254 260 253 262 257 245 246 251 260 264 264 264 268 268 267 267 271 276 279 275 276 277 274 275 275 279 281 286 282 287 288 288 287 286 289
230 232 237 239 243 243 239 244 242 247 251 253 254 258 253 254 253 254 252 257 263 259 261 259 263 267 269 271 274 279 282 275 275 276 275 276 281 285 284 284 286 288 287 289 293 298 294
233 235 239 238 240 244 243 244 237 243 247 251 255 253 247 244 252 255 258 259 256 256 260 257 262 265 270 271 275 280 279 279 282 280 280 285 286 286 289 287 283 284 286 290 294 292 293
238 238 238 237 241 241 243 246 244 248 247 249 247 242 241 243 252 253 251 254 256 256 261 257 260 267 264 271 274 278 276 282 280 278 281 282 283 290 288 279 280 289 293 295 291 289 293
239 238 243 240 241 243 235 237 239 244 247 250 245 243 239 246 251 251 250 253 251 256 255 257 264 267 269 272 272 274 276 281 278 274 276 280 283 287 284 279 286 291 290 287 291 294 290
240 241 241 239 239 237 234 236 240 244 244 240 241 248 247 249 248 245 246 249 251 251 252 257 264 271 268 265 268 272 275 276 276 277 284 290 288 282 280 287 289 289 288 290 293 292 290
242 241 241 239 240 241 243 243 245 247 244 238 243 245 246 245 247 246 248 246 251 253 254 259 262 263 266 269 262 267 270 275 281 283 286 284 285 287 285 288 288 288 298 293 293 291 287
240 241 241 238 238 239 241 243 244 244 243 242 243 243 247 245 246 250 248 249 250 251 254 259 257 259 262 259 270 277 280 283 284 284 283 280 285 284 284 288 287 293 293 294 292 288 286
238 238 239 238 238 240 238 239 240 242 240 239 240 244 247 248 247 249 248 251 248 250 251 256 256 255 262 267 276 274 278 279 281 280 281 283 283 289 290 291 291 294 295 290 289 287 283
236 237 238 237 237 236 238 240 239 241 242 242 242 244 246 250 250 250 251 251 248 245 249 250 256 262 263 269 271 276 278 278 276 279 283 282 283 286 291 290 292 288 292 289 286 283 279
231 232 233 236 235 235 236 239 241 240 241 245 243 243 244 245 245 246 247 247 246 247 248 251 256 261 264 268 271 273 274 275 276 280 280 282 284 289 289 286 290 286 284 285 279 281 282
234 234 233 232 231 233 236 236 237 239 240 242 243 244 241 241 246 246 245 245 246 247 249 253 256 259 263 265 267 272 271 276 277 277 278 282 283 287 284 280 280 282 279 277 277 283 290
240 237 235 233 232 231 230 231 234 236 237 238 241 243 244 244 242 242 246 248 248 247 249 254 256 259 261 265 265 266 271 272 279 280 282 282 285 280 277 278 274 273 273 279 284 292 296